Location: Chantarel
(45.1638°N, 1.7873°E)
Time: 16:20:56
(UTC+00:00)

Cosmos 2360 Rocket - Pass Details

Date: 03 March 2021
Orbit: 832 x 846 km, 71.0° (Epoch: 11 April)

Event Time Altitude Azimuth Distance (km) Brightness Sun altitude
Rises 18:35:54 0° 188° (S) 3,373 5.4 -10.1°
Reaches altitude 10° 18:38:23 10° 183° (S) 2,445 4.6 -10.6°
Maximum altitude 18:43:47 51° 109° (ESE) 1,051 2.3 -11.5°
Drops below altitude 10° 18:49:15 10° 35° (NE) 2,470 4.3 -12.5°
Sets 18:51:46 0° 30° (NNE) 3,411 5.1 -12.9°
